WB9ZLM Weather Reports


Display with metric or nautical units.
time (UTC)temp
F
wind
direction
speed
MPH
gust
MPH
rain 1hr
in
rain 24hr
in
rain mn
in
humidity
%
barometer
mb
20260504060201 58 0 0.0 5.0 0.00 0.00 0.00 58 1009.4
20260504050412 59 0 0.0 5.0 0.00 0.00 0.00 56 1014.1
20260504050201 59 0 0.0 5.0 0.00 0.00 0.00 56 1014.1
20260504044701 59 0 0.0 5.0 0.00 0.00 0.00 57 1014.1
20260504044600 59 0 0.0 5.0 0.00 0.00 0.00 57 1014.1
20260504043201 60 240 0.0 5.0 0.00 0.00 0.00 56 1010.1
20260504043100 60 240 0.0 5.0 0.00 0.00 0.00 56 1010.1
20260504041702 60 240 0.0 5.0 0.00 0.00 0.00 57 1010.1
20260504041600 60 240 0.0 5.0 0.00 0.00 0.00 57 1010.1
20260504040201 60 240 0.0 5.0 0.00 0.00 0.00 57 1010.1
20260504040100 60 240 0.0 5.0 0.00 0.00 0.00 57 1010.1
20260504034701 60 240 0.0 5.0 0.00 0.00 0.00 57 1010.2
20260504034600 60 240 0.0 5.0 0.00 0.00 0.00 57 1010.2
20260504033201 60 240 0.0 5.0 0.00 0.00 0.00 57 1010.3
20260504033100 60 240 0.0 5.0 0.00 0.00 0.00 57 1010.3
20260504031701 61 240 0.0 5.0 0.00 0.00 0.00 56 1010.3
20260504031600 61 240 0.0 5.0 0.00 0.00 0.00 56 1010.3
20260504030201 61 230 0.0 5.0 0.00 0.00 0.00 55 1010.2
20260504030100 61 230 0.0 5.0 0.00 0.00 0.00 55 1010.2
20260504024701 62 230 0.0 5.0 0.00 0.00 0.00 54 1010.3
20260504024600 62 230 0.0 5.0 0.00 0.00 0.00 54 1010.3
20260504023202 62 230 0.0 5.0 0.00 0.00 0.00 53 1010.2
20260504023100 62 230 0.0 5.0 0.00 0.00 0.00 53 1010.2
20260504021701 62 230 0.0 5.0 0.00 0.00 0.00 53 1010.1
20260504021600 62 230 0.0 5.0 0.00 0.00 0.00 53 1010.1
20260504020202 63 230 0.0 5.0 0.00 0.00 0.00 52 1010.1
20260504020100 63 230 0.0 5.0 0.00 0.00 0.00 52 1010.1
20260504014701 63 240 0.0 5.0 0.00 0.00 0.00 51 1009.9
20260504014600 63 240 0.0 5.0 0.00 0.00 0.00 51 1009.9
20260504013201 63 230 0.0 5.0 0.00 0.00 0.00 49 1010.0
20260504013100 63 230 0.0 5.0 0.00 0.00 0.00 49 1010.0
20260504011701 64 230 0.0 5.0 0.00 0.00 0.00 46 1009.8
20260504011600 64 230 0.0 5.0 0.00 0.00 0.00 46 1009.8
20260504010201 64 240 0.0 5.0 0.00 0.00 0.00 46 1009.8
20260504010100 64 240 0.0 5.0 0.00 0.00 0.00 46 1009.8
20260504004702 65 240 0.0 5.0 0.00 0.00 0.00 45 1009.8
20260504004600 65 240 0.0 5.0 0.00 0.00 0.00 45 1009.8
20260504003201 65 240 0.0 5.0 0.00 0.00 0.00 45 1009.8
20260504003100 65 240 0.0 5.0 0.00 0.00 0.00 45 1009.8
20260504001701 66 240 2.0 5.0 0.00 0.00 0.00 43 1009.7
20260504001600 66 240 2.0 5.0 0.00 0.00 0.00 43 1009.7
20260504000201 66 240 0.0 5.0 0.00 0.00 0.00 43 1009.9
20260504000100 66 240 0.0 5.0 0.00 0.00 0.00 43 1009.9
20260503234701 66 240 0.0 5.0 0.00 0.00 0.00 43 1010.0
20260503234600 66 240 0.0 5.0 0.00 0.00 0.00 43 1010.0
20260503233201 67 240 2.0 5.0 0.00 0.00 0.00 42 1009.9
20260503233100 67 240 2.0 5.0 0.00 0.00 0.00 42 1009.9
20260503231701 67 250 5.0 5.0 0.00 0.00 0.00 42 1010.0
20260503231600 67 250 5.0 5.0 0.00 0.00 0.00 42 1010.0
20260503230201 67 240 0.0 5.0 0.00 0.00 0.00 42 1010.0
20260503230100 67 240 0.0 5.0 0.00 0.00 0.00 42 1010.0
20260503224701 67 240 2.0 5.0 0.00 0.00 0.00 42 1010.1
20260503224600 67 240 2.0 5.0 0.00 0.00 0.00 42 1010.1
20260503223201 67 250 1.0 5.0 0.00 0.00 0.00 42 1010.1
20260503223100 67 250 1.0 5.0 0.00 0.00 0.00 42 1010.1
20260503221701 67 230 6.0 5.0 0.00 0.00 0.00 41 1010.3
20260503221600 67 230 6.0 5.0 0.00 0.00 0.00 41 1010.3
20260503220201 67 240 1.0 5.0 0.00 0.00 0.00 41 1010.5
20260503220100 67 240 1.0 5.0 0.00 0.00 0.00 41 1010.5
20260503214701 66 230 0.0 5.0 0.00 0.00 0.00 41 1010.5
20260503214600 66 230 0.0 5.0 0.00 0.00 0.00 41 1010.5
20260503213201 66 230 4.0 5.0 0.00 0.00 0.00 41 1010.6
20260503213100 66 230 4.0 5.0 0.00 0.00 0.00 41 1010.6
20260503211701 66 220 5.0 5.0 0.00 0.00 0.00 41 1010.6
20260503211600 66 220 5.0 5.0 0.00 0.00 0.00 41 1010.6
20260503210201 66 240 4.0 5.0 0.00 0.00 0.00 40 1010.7
20260503210100 66 240 4.0 5.0 0.00 0.00 0.00 40 1010.7
20260503204701 66 230 5.0 5.0 0.00 0.00 0.00 38 1010.9
20260503204600 66 230 5.0 5.0 0.00 0.00 0.00 38 1010.9
20260503203201 67 240 5.0 5.0 0.00 0.00 0.00 38 1010.7
20260503203100 67 240 5.0 5.0 0.00 0.00 0.00 38 1010.7
20260503201701 67 230 4.0 5.0 0.00 0.00 0.00 37 1011.1
20260503201600 67 230 4.0 5.0 0.00 0.00 0.00 37 1011.1
20260503200201 67 210 7.0 5.0 0.00 0.00 0.00 38 1011.1
20260503200100 67 210 7.0 5.0 0.00 0.00 0.00 38 1011.1
20260503194701 66 210 3.0 5.0 0.00 0.00 0.00 39 1011.4
20260503194600 66 210 3.0 5.0 0.00 0.00 0.00 39 1011.4
20260503193201 67 210 6.0 5.0 0.00 0.00 0.00 38 1011.5
20260503193100 67 210 6.0 5.0 0.00 0.00 0.00 38 1011.5
20260503191701 67 210 3.0 5.0 0.00 0.00 0.00 38 1011.7
20260503191600 67 210 3.0 5.0 0.00 0.00 0.00 38 1011.7
20260503190201 66 210 6.0 5.0 0.00 0.00 0.00 38 1011.5
20260503190100 66 210 6.0 5.0 0.00 0.00 0.00 38 1011.5
20260503184701 64 210 6.0 5.0 0.00 0.00 0.00 38 1011.9
20260503184600 64 210 6.0 5.0 0.00 0.00 0.00 38 1011.9
20260503183201 64 210 4.0 5.0 0.00 0.00 0.00 39 1012.2
20260503183100 64 210 4.0 5.0 0.00 0.00 0.00 39 1012.2
20260503181701 63 210 3.0 5.0 0.00 0.00 0.00 39 1012.5
20260503181600 63 210 3.0 5.0 0.00 0.00 0.00 39 1012.5
20260503180201 62 210 9.0 5.0 0.00 0.00 0.00 43 1012.6
20260503180100 62 210 9.0 5.0 0.00 0.00 0.00 43 1012.6
20260503174701 60 220 3.0 5.0 0.00 0.00 0.00 44 1012.9
20260503174600 60 220 3.0 5.0 0.00 0.00 0.00 44 1012.9
20260503173201 58 220 0.0 5.0 0.00 0.00 0.00 48 1013.6
20260503173100 58 220 0.0 5.0 0.00 0.00 0.00 48 1013.6
20260503171701 57 220 7.0 5.0 0.00 0.00 0.00 49 1014.0
20260503171600 57 220 7.0 5.0 0.00 0.00 0.00 49 1014.0
20260503170201 56 200 0.0 5.0 0.00 0.00 0.00 50 1014.7
20260503160201 54 190 0.0 5.0 0.00 0.00 0.00 52 1015.7
20260503150201 52 200 0.0 5.0 0.00 0.00 0.00 57 1016.8
20260503140201 50 190 2.0 5.0 0.00 0.00 0.00 58 1017.5
20260503130202 49 200 0.0 5.0 0.00 0.00 0.00 60 1018.1
20260503120201 48 210 2.0 5.0 0.00 0.00 0.00 61 1018.0
20260503110201 47 190 2.0 5.0 0.00 0.00 0.00 59 1017.7
20260503100201 47 210 2.0 5.0 0.00 0.00 0.00 57 1018.1
20260503090201 48 200 0.0 5.0 0.00 0.00 0.00 56 1018.4
20260503081600 48 200 0.0 5.0 0.00 0.00 0.00 57 1018.4
20260503080201 48 210 0.0 5.0 0.00 0.00 0.00 58 1018.5
20260503071701 48 210 0.0 5.0 0.00 0.00 0.00 56 1018.7
20260503071600 48 210 0.0 5.0 0.00 0.00 0.00 56 1018.7
20260503070201 48 220 0.0 5.0 0.00 0.00 0.00 56 1018.8